Time,TemperatureF,DewpointF,PressureIn,WindDirection,WindDirectionDegrees,WindSpeedMPH,WindSpeedGustMPH,Humidity,HourlyPrecipIn,Conditions,Clouds,dailyrainin,SoftwareType,DateUTC
2013-03-07 00:00:00,37.1,28.2,29.94,NE,44,9.0,9.0,70,0.00,,,0.02,Wunderground v.1.15,2013-03-07 05:00:00,
2013-03-07 00:10:00,37.0,28.1,29.93,North,5,7.0,8.0,70,0.00,,,0.00,Wunderground v.1.15,2013-03-07 05:10:00,
2013-03-07 00:16:00,37.0,28.0,29.93,NE,46,9.0,19.0,70,0.00,,,0.00,weatherlink.com 1.10,2013-03-07 05:16:00,
2013-03-07 00:20:00,37.0,28.1,29.93,NNE,13,9.0,9.0,70,0.00,,,0.00,Wunderground v.1.15,2013-03-07 05:20:00,
2013-03-07 00:30:00,36.9,28.0,29.93,NE,41,8.0,8.0,70,0.00,,,0.00,Wunderground v.1.15,2013-03-07 05:30:00,
2013-03-07 00:40:00,36.8,27.9,29.93,North,5,7.0,12.0,70,0.00,,,0.00,Wunderground v.1.15,2013-03-07 05:40:00,
2013-03-07 00:47:00,36.8,28.0,29.93,NNE,32,6.0,22.0,70,0.00,,,0.00,weatherlink.com 1.10,2013-03-07 05:47:00,
2013-03-07 01:00:00,36.7,28.2,29.93,NNE,31,7.0,10.0,71,0.00,,,0.00,Wunderground v.1.15,2013-03-07 06:00:00,
2013-03-07 01:10:00,36.6,28.1,29.93,East,83,7.0,7.0,71,0.00,,,0.00,Wunderground v.1.15,2013-03-07 06:10:00,
2013-03-07 01:16:00,36.6,28.0,29.93,NNE,19,6.0,13.0,71,0.00,,,0.00,weatherlink.com 1.10,2013-03-07 06:16:00,
2013-03-07 01:30:00,36.6,28.1,29.93,NNE,32,7.0,8.0,71,0.00,,,0.00,Wunderground v.1.15,2013-03-07 06:30:00,
2013-03-07 01:40:00,36.6,28.1,29.93,NE,40,9.0,9.0,71,0.00,,,0.00,Wunderground v.1.15,2013-03-07 06:40:00,
2013-03-07 01:47:00,36.6,28.0,29.93,ENE,60,9.0,16.0,71,0.00,,,0.00,weatherlink.com 1.10,2013-03-07 06:47:00,
2013-03-07 02:00:00,36.6,28.1,29.93,NE,47,9.0,14.0,71,0.00,,,0.00,Wunderground v.1.15,2013-03-07 07:00:00,
2013-03-07 02:10:00,36.5,28.0,29.93,NNE,26,9.0,9.0,71,0.00,,,0.00,Wunderground v.1.15,2013-03-07 07:10:00,
2013-03-07 02:16:00,36.4,28.0,29.93,NE,53,10.0,19.0,71,0.00,,,0.00,weatherlink.com 1.10,2013-03-07 07:16:00,
2013-03-07 02:30:00,36.3,28.1,29.93,NNE,22,9.0,9.0,72,0.00,,,0.00,Wunderground v.1.15,2013-03-07 07:30:00,
2013-03-07 02:40:00,36.2,28.0,29.92,NE,45,8.0,8.0,72,0.00,,,0.00,Wunderground v.1.15,2013-03-07 07:40:00,
2013-03-07 02:47:00,36.2,28.0,29.92,NNE,15,7.0,15.0,72,0.00,,,0.00,weatherlink.com 1.10,2013-03-07 07:47:00,
2013-03-07 03:00:00,36.0,28.2,29.92,North,351,7.0,12.0,73,0.00,,,0.00,Wunderground v.1.15,2013-03-07 08:00:00,
2013-03-07 03:10:00,35.9,28.1,29.92,North,11,7.0,7.0,73,0.00,,,0.00,Wunderground v.1.15,2013-03-07 08:10:00,
2013-03-07 03:18:00,35.9,28.0,29.92,NNE,24,11.0,18.0,73,0.00,,,0.00,weatherlink.com 1.10,2013-03-07 08:18:00,
2013-03-07 03:30:00,35.8,28.0,29.92,NE,55,8.0,9.0,73,0.00,,,0.00,Wunderground v.1.15,2013-03-07 08:30:00,
2013-03-07 03:40:00,35.8,27.7,29.92,NNE,20,8.0,8.0,72,0.00,,,0.00,Wunderground v.1.15,2013-03-07 08:40:00,
2013-03-07 03:47:00,35.9,28.0,29.92,NNE,26,11.0,16.0,72,0.00,,,0.00,weatherlink.com 1.10,2013-03-07 08:47:00,
2013-03-07 04:00:00,35.9,27.4,29.93,NNE,20,7.0,7.0,71,0.00,,,0.00,Wunderground v.1.15,2013-03-07 09:00:00,
2013-03-07 04:10:00,35.8,27.3,29.93,NNE,29,8.0,9.0,71,0.00,,,0.00,Wunderground v.1.15,2013-03-07 09:10:00,
2013-03-07 04:17:00,35.8,28.0,29.94,NE,38,6.0,17.0,72,0.00,,,0.00,weatherlink.com 1.10,2013-03-07 09:17:00,
2013-03-07 04:32:00,35.6,27.0,29.95,NNE,25,9.0,17.0,72,0.00,,,0.00,weatherlink.com 1.10,2013-03-07 09:32:00,
2013-03-07 04:40:00,35.5,27.7,29.95,NNE,24,8.0,8.0,73,0.00,,,0.00,Wunderground v.1.15,2013-03-07 09:40:00,
2013-03-07 04:48:00,35.3,28.0,29.95,NE,42,9.0,16.0,74,0.00,,,0.00,weatherlink.com 1.10,2013-03-07 09:48:00,
2013-03-07 05:00:00,35.0,27.9,29.96,North,5,7.0,7.0,75,0.00,,,0.00,Wunderground v.1.15,2013-03-07 10:00:00,
2013-03-07 05:10:00,34.8,28.0,29.97,NE,47,6.0,6.0,76,0.00,,,0.00,Wunderground v.1.15,2013-03-07 10:10:00,
2013-03-07 05:18:00,34.7,28.0,29.97,NNE,25,8.0,12.0,76,0.00,,,0.00,weatherlink.com 1.10,2013-03-07 10:18:00,
2013-03-07 05:34:00,34.8,28.0,29.97,NNE,24,13.0,14.0,75,0.00,,,0.00,weatherlink.com 1.10,2013-03-07 10:34:00,
2013-03-07 05:40:00,34.8,27.7,29.97,NE,34,7.0,7.0,75,0.00,,,0.00,Wunderground v.1.15,2013-03-07 10:40:00,
2013-03-07 05:48:00,34.7,28.0,29.97,North,10,0.0,15.0,75,0.00,,,0.00,weatherlink.com 1.10,2013-03-07 10:48:00,
2013-03-07 06:00:00,34.5,27.7,29.98,NNW,341,9.0,9.0,76,0.00,,,0.00,Wunderground v.1.15,2013-03-07 11:00:00,
2013-03-07 06:10:00,34.3,27.8,29.98,NNE,16,8.0,8.0,77,0.00,,,0.00,Wunderground v.1.15,2013-03-07 11:10:00,
2013-03-07 06:19:00,34.2,28.0,29.98,North,5,5.0,14.0,77,0.00,,,0.00,weatherlink.com 1.10,2013-03-07 11:19:00,
2013-03-07 06:30:00,34.1,27.6,29.98,NNE,30,8.0,8.0,77,0.00,,,0.00,Wunderground v.1.15,2013-03-07 11:30:00,
2013-03-07 06:40:00,34.0,27.5,29.98,NE,43,7.0,11.0,77,0.00,,,0.00,Wunderground v.1.15,2013-03-07 11:40:00,
2013-03-07 06:49:00,34.1,28.0,29.97,North,5,16.0,19.0,77,0.00,,,0.00,weatherlink.com 1.10,2013-03-07 11:49:00,
2013-03-07 07:00:00,34.1,27.6,29.98,NNE,15,7.0,7.0,77,0.00,,,0.00,Wunderground v.1.15,2013-03-07 12:00:00,
2013-03-07 07:10:00,34.1,27.6,29.98,NNE,33,6.0,6.0,77,0.00,,,0.00,Wunderground v.1.15,2013-03-07 12:10:00,
2013-03-07 07:18:00,34.1,28.0,29.99,NE,40,7.0,14.0,78,0.00,,,0.00,weatherlink.com 1.10,2013-03-07 12:18:00,
2013-03-07 07:30:00,33.8,28.3,29.99,NE,53,7.0,7.0,80,0.00,,,0.00,Wunderground v.1.15,2013-03-07 12:30:00,
2013-03-07 07:40:00,33.5,28.6,29.99,NNE,31,6.0,11.0,82,0.00,,,0.00,Wunderground v.1.15,2013-03-07 12:40:00,
2013-03-07 07:49:00,33.3,29.0,30.00,NE,50,4.0,15.0,83,0.00,,,0.00,weatherlink.com 1.10,2013-03-07 12:49:00,
2013-03-07 08:00:00,33.1,29.1,30.00,NNE,26,4.0,5.0,85,0.00,,,0.00,Wunderground v.1.15,2013-03-07 13:00:00,
2013-03-07 08:10:00,33.3,28.7,30.00,NNE,26,7.0,7.0,83,0.00,,,0.00,Wunderground v.1.15,2013-03-07 13:10:00,
2013-03-07 08:20:00,33.6,28.7,30.00,NE,34,7.0,7.0,82,0.00,,,0.00,Wunderground v.1.15,2013-03-07 13:20:00,
2013-03-07 08:30:00,33.5,28.9,30.00,NNE,19,8.0,8.0,83,0.00,,,0.00,Wunderground v.1.15,2013-03-07 13:30:00,
2013-03-07 08:40:00,33.4,28.8,30.00,NNE,24,7.0,9.0,83,0.00,,,0.00,Wunderground v.1.15,2013-03-07 13:40:00,
2013-03-07 08:50:00,33.2,29.2,30.00,NNE,26,8.0,11.0,85,0.00,,,0.00,Wunderground v.1.15,2013-03-07 13:50:00,
2013-03-07 09:00:00,33.2,29.5,30.00,North,10,7.0,12.0,86,0.00,,,0.00,Wunderground v.1.15,2013-03-07 14:00:00,
2013-03-07 09:10:00,33.2,29.8,30.00,NNW,331,8.0,8.0,87,0.00,,,0.00,Wunderground v.1.15,2013-03-07 14:10:00,
2013-03-07 09:20:00,33.7,29.7,30.00,North,5,7.0,9.0,85,0.00,,,0.00,Wunderground v.1.15,2013-03-07 14:20:00,
2013-03-07 09:30:00,34.6,30.3,30.01,NE,42,6.0,7.0,84,0.00,,,0.00,Wunderground v.1.15,2013-03-07 14:30:00,
2013-03-07 09:40:00,34.8,29.6,30.01,North,355,8.0,8.0,81,0.00,,,0.00,Wunderground v.1.15,2013-03-07 14:40:00,
2013-03-07 09:50:00,35.1,29.6,30.00,ENE,67,6.0,6.0,80,0.00,,,0.00,Wunderground v.1.15,2013-03-07 14:50:00,
2013-03-07 10:00:00,35.0,29.5,30.01,NNE,22,7.0,9.0,80,0.00,,,0.00,Wunderground v.1.15,2013-03-07 15:00:00,
2013-03-07 10:20:00,34.8,30.0,30.01,NE,42,14.0,20.0,83,0.00,,,0.00,weatherlink.com 1.10,2013-03-07 15:20:00,
2013-03-07 10:35:00,34.5,30.0,30.01,North,355,9.0,15.0,84,0.00,,,0.00,weatherlink.com 1.10,2013-03-07 15:35:00,
2013-03-07 10:50:00,34.9,30.0,30.01,NE,49,6.0,12.0,83,0.00,,,0.00,weatherlink.com 1.10,2013-03-07 15:50:00,
2013-03-07 11:05:00,35.1,30.0,30.01,North,360,6.0,14.0,83,0.00,,,0.00,weatherlink.com 1.10,2013-03-07 16:05:00,
2013-03-07 11:20:00,35.3,30.0,30.02,North,355,8.0,16.0,80,0.00,,,0.00,weatherlink.com 1.10,2013-03-07 16:20:00,
2013-03-07 11:35:00,35.8,30.0,30.02,NNE,13,5.0,13.0,80,0.00,,,0.00,weatherlink.com 1.10,2013-03-07 16:35:00,
2013-03-07 11:50:00,35.2,30.6,30.01,NNE,13,7.0,8.0,83,0.00,,,0.00,Wunderground v.1.15,2013-03-07 16:50:00,
2013-03-07 12:00:00,35.0,30.9,30.01,NNE,28,5.0,5.0,85,0.00,,,0.00,Wunderground v.1.15,2013-03-07 17:00:00,
2013-03-07 12:10:00,34.8,31.0,30.01,North,5,6.0,6.0,86,0.00,,,0.00,Wunderground v.1.15,2013-03-07 17:10:00,
2013-03-07 12:20:00,34.8,31.0,30.00,NNE,30,7.0,7.0,86,0.00,,,0.00,Wunderground v.1.15,2013-03-07 17:20:00,
2013-03-07 12:30:00,35.3,31.5,30.00,NNW,342,5.0,5.0,86,0.00,,,0.00,Wunderground v.1.15,2013-03-07 17:30:00,
2013-03-07 12:36:00,35.7,32.0,30.00,NE,36,6.0,15.0,85,0.00,,,0.00,weatherlink.com 1.10,2013-03-07 17:36:00,
2013-03-07 12:50:00,36.2,31.2,30.00,NNE,22,7.0,7.0,82,0.00,,,0.00,Wunderground v.1.15,2013-03-07 17:50:00,
2013-03-07 13:00:00,36.2,31.2,30.00,NNE,33,7.0,7.0,82,0.00,,,0.00,Wunderground v.1.15,2013-03-07 18:00:00,
2013-03-07 13:07:00,36.5,32.0,30.00,NNE,23,1.0,10.0,82,0.00,,,0.00,weatherlink.com 1.10,2013-03-07 18:07:00,
2013-03-07 13:20:00,36.8,31.8,30.00,North,9,6.0,6.0,82,0.00,,,0.00,Wunderground v.1.15,2013-03-07 18:20:00,
2013-03-07 13:30:00,36.6,31.6,30.00,NNW,348,7.0,7.0,82,0.00,,,0.00,Wunderground v.1.15,2013-03-07 18:30:00,
2013-03-07 13:37:00,36.5,32.0,30.01,North,355,8.0,13.0,82,0.00,,,0.00,weatherlink.com 1.10,2013-03-07 18:37:00,
2013-03-07 13:51:00,36.4,32.0,30.01,North,9,3.0,21.0,83,0.00,,,0.00,weatherlink.com 1.10,2013-03-07 18:51:00,
2013-03-07 14:00:00,36.2,31.2,30.01,NNE,19,6.0,7.0,82,0.00,,,0.00,Wunderground v.1.15,2013-03-07 19:00:00,
2013-03-07 14:07:00,36.2,32.0,30.01,ENE,58,5.0,11.0,83,0.00,,,0.00,weatherlink.com 1.10,2013-03-07 19:07:00,
2013-03-07 14:21:00,35.9,32.0,30.01,North,351,4.0,11.0,84,0.00,,,0.00,weatherlink.com 1.10,2013-03-07 19:21:00,
2013-03-07 14:30:00,35.8,31.7,30.02,NNW,341,6.0,6.0,85,0.00,,,0.00,Wunderground v.1.15,2013-03-07 19:30:00,
2013-03-07 14:37:00,35.6,32.0,30.02,NNE,28,5.0,11.0,87,0.00,,,0.00,weatherlink.com 1.10,2013-03-07 19:37:00,
2013-03-07 14:50:00,35.1,32.2,30.02,NNW,334,5.0,7.0,89,0.00,,,0.00,Wunderground v.1.15,2013-03-07 19:50:00,
2013-03-07 15:00:00,34.7,32.3,30.03,NNW,347,5.0,6.0,91,0.00,,,0.00,Wunderground v.1.15,2013-03-07 20:00:00,
2013-03-07 15:07:00,34.4,32.0,30.03,NNE,23,2.0,11.0,91,0.00,,,0.00,weatherlink.com 1.10,2013-03-07 20:07:00,
2013-03-07 15:20:00,34.3,32.2,30.03,NE,35,4.0,4.0,92,0.00,,,0.00,Wunderground v.1.15,2013-03-07 20:20:00,
2013-03-07 15:30:00,34.2,32.1,30.04,NNW,334,4.0,5.0,92,0.00,,,0.00,Wunderground v.1.15,2013-03-07 20:30:00,
2013-03-07 15:38:00,34.2,32.0,30.04,NE,50,2.0,9.0,93,0.00,,,0.00,weatherlink.com 1.10,2013-03-07 20:38:00,
2013-03-07 15:50:00,34.1,32.3,30.04,North,5,3.0,7.0,93,0.00,,,0.00,Wunderground v.1.15,2013-03-07 20:50:00,
2013-03-07 16:00:00,33.9,32.1,30.04,North,351,4.0,4.0,93,0.00,,,0.01,Wunderground v.1.15,2013-03-07 21:00:00,
2013-03-07 16:07:00,33.9,32.0,30.04,NNE,32,5.0,7.0,93,0.01,,,0.01,weatherlink.com 1.10,2013-03-07 21:07:00,
2013-03-07 16:20:00,33.8,32.3,30.04,North,360,3.0,5.0,94,0.00,,,0.01,Wunderground v.1.15,2013-03-07 21:20:00,
2013-03-07 16:30:00,33.8,32.3,30.04,NNE,17,4.0,5.0,94,0.00,,,0.01,Wunderground v.1.15,2013-03-07 21:30:00,
2013-03-07 16:38:00,33.7,32.0,30.04,NE,35,3.0,11.0,94,0.01,,,0.01,weatherlink.com 1.10,2013-03-07 21:38:00,
2013-03-07 16:50:00,33.6,32.1,30.05,NNW,335,3.0,3.0,94,0.00,,,0.01,Wunderground v.1.15,2013-03-07 21:50:00,
2013-03-07 17:00:00,33.6,32.1,30.05,NE,34,2.0,2.0,94,0.00,,,0.01,Wunderground v.1.15,2013-03-07 22:00:00,
2013-03-07 17:08:00,33.5,32.0,30.05,North,9,3.0,6.0,94,0.00,,,0.01,weatherlink.com 1.10,2013-03-07 22:08:00,
2013-03-07 17:20:00,33.4,31.9,30.05,NNE,18,3.0,3.0,94,0.00,,,0.02,Wunderground v.1.15,2013-03-07 22:20:00,
2013-03-07 17:30:00,33.3,31.8,30.06,NNE,25,2.0,2.0,94,0.00,,,0.02,Wunderground v.1.15,2013-03-07 22:30:00,
2013-03-07 17:40:00,33.3,31.8,30.06,NNE,29,0.0,0.0,94,0.00,,,0.02,Wunderground v.1.15,2013-03-07 22:40:00,
2013-03-07 17:50:00,33.3,32.0,30.06,North,5,1.0,1.0,95,0.00,,,0.02,Wunderground v.1.15,2013-03-07 22:50:00,
2013-03-07 18:00:00,33.2,31.9,30.06,North,11,0.0,2.0,95,0.00,,,0.02,Wunderground v.1.15,2013-03-07 23:00:00,
2013-03-07 18:08:00,33.2,32.0,30.06,NNE,30,2.0,3.0,95,0.01,,,0.02,weatherlink.com 1.10,2013-03-07 23:08:00,
2013-03-07 18:20:00,33.2,31.9,30.07,NNE,32,2.0,2.0,95,0.00,,,0.02,Wunderground v.1.15,2013-03-07 23:20:00,
2013-03-07 18:30:00,33.2,31.9,30.07,NNE,23,1.0,1.0,95,0.00,,,0.02,Wunderground v.1.15,2013-03-07 23:30:00,
2013-03-07 18:38:00,33.1,32.0,30.07,NNE,28,0.0,5.0,95,0.00,,,0.02,weatherlink.com 1.10,2013-03-07 23:38:00,
2013-03-07 18:50:00,33.1,31.8,30.07,North,355,1.0,1.0,95,0.00,,,0.02,Wunderground v.1.15,2013-03-07 23:50:00,
2013-03-07 19:00:00,33.1,31.8,30.07,NNE,22,1.0,2.0,95,0.00,,,0.02,Wunderground v.1.15,2013-03-08 00:00:00,
2013-03-07 19:08:00,33.1,32.0,30.06,North,360,1.0,7.0,95,0.00,,,0.02,weatherlink.com 1.10,2013-03-08 00:08:00,
2013-03-07 19:20:00,33.1,31.8,30.06,NNW,332,1.0,1.0,95,0.00,,,0.02,Wunderground v.1.15,2013-03-08 00:20:00,
2013-03-07 19:30:00,33.1,31.8,30.06,North,360,1.0,1.0,95,0.00,,,0.02,Wunderground v.1.15,2013-03-08 00:30:00,
2013-03-07 19:38:00,33.1,32.0,30.07,North,360,1.0,3.0,95,0.00,,,0.02,weatherlink.com 1.10,2013-03-08 00:38:00,
2013-03-07 19:50:00,33.1,31.8,30.06,NNE,28,1.0,1.0,95,0.00,,,0.02,Wunderground v.1.15,2013-03-08 00:50:00,
2013-03-07 20:00:00,33.1,31.8,30.07,NNE,31,1.0,1.0,95,0.00,,,0.02,Wunderground v.1.15,2013-03-08 01:00:00,
2013-03-07 20:10:00,33.0,31.7,30.06,NNE,31,1.0,2.0,95,0.00,,,0.02,Wunderground v.1.15,2013-03-08 01:10:00,
2013-03-07 20:20:00,33.0,31.7,30.06,NNE,27,1.0,1.0,95,0.00,,,0.02,Wunderground v.1.15,2013-03-08 01:20:00,
2013-03-07 20:30:00,32.9,31.6,30.06,NE,39,1.0,1.0,95,0.00,,,0.02,Wunderground v.1.15,2013-03-08 01:30:00,
2013-03-07 20:39:00,32.9,32.0,30.06,NNE,28,0.0,5.0,95,0.00,,,0.02,weatherlink.com 1.10,2013-03-08 01:39:00,
2013-03-07 20:50:00,32.9,31.6,30.06,NNE,32,1.0,1.0,95,0.00,,,0.02,Wunderground v.1.15,2013-03-08 01:50:00,
2013-03-07 20:55:00,32.8,32.0,30.05,NNE,32,3.0,4.0,95,0.00,,,0.02,weatherlink.com 1.10,2013-03-08 01:55:00,
2013-03-07 21:00:00,32.8,31.5,30.05,East,91,2.0,2.0,95,0.00,,,0.02,Wunderground v.1.15,2013-03-08 02:00:00,
2013-03-07 21:10:00,32.8,31.5,30.05,ENE,67,1.0,2.0,95,0.00,,,0.02,Wunderground v.1.15,2013-03-08 02:10:00,
2013-03-07 21:20:00,32.7,31.4,30.05,NNW,337,2.0,2.0,95,0.00,,,0.02,Wunderground v.1.15,2013-03-08 02:20:00,
2013-03-07 21:30:00,32.6,31.3,30.05,NNE,17,2.0,3.0,95,0.00,,,0.02,Wunderground v.1.15,2013-03-08 02:30:00,
2013-03-07 21:40:00,32.6,31.3,30.05,NNE,32,2.0,2.0,95,0.00,,,0.02,Wunderground v.1.15,2013-03-08 02:40:00,
2013-03-07 21:55:00,32.4,31.0,30.04,NNE,27,4.0,6.0,95,0.00,,,0.02,weatherlink.com 1.10,2013-03-08 02:55:00,
2013-03-07 22:00:00,32.4,31.1,30.04,NE,50,2.0,2.0,95,0.00,,,0.02,Wunderground v.1.15,2013-03-08 03:00:00,
2013-03-07 22:10:00,32.3,31.0,30.04,NE,34,1.0,1.0,95,0.00,,,0.02,Wunderground v.1.15,2013-03-08 03:10:00,
2013-03-07 22:20:00,32.1,30.8,30.04,NNE,29,2.0,4.0,95,0.00,,,0.02,Wunderground v.1.15,2013-03-08 03:20:00,
2013-03-07 22:25:00,32.0,31.0,30.04,NNE,26,3.0,5.0,95,0.00,,,0.02,weatherlink.com 1.10,2013-03-08 03:25:00,
2013-03-07 22:39:00,31.9,31.0,30.04,NE,34,0.0,5.0,96,0.00,,,0.02,weatherlink.com 1.10,2013-03-08 03:39:00,
2013-03-07 22:50:00,31.8,30.8,30.04,NNE,13,0.0,0.0,96,0.00,,,0.02,Wunderground v.1.15,2013-03-08 03:50:00,
2013-03-07 22:55:00,31.8,31.0,30.04,NNE,13,0.0,0.0,95,0.00,,,0.02,weatherlink.com 1.10,2013-03-08 03:55:00,
2013-03-07 23:00:00,31.8,30.5,30.04,NNE,33,0.0,0.0,95,0.00,,,0.02,Wunderground v.1.15,2013-03-08 04:00:00,
2013-03-07 23:10:00,31.8,30.8,30.04,NNE,33,0.0,0.0,96,0.00,,,0.02,Wunderground v.1.15,2013-03-08 04:10:00,
2013-03-07 23:20:00,31.7,30.7,30.04,NNE,31,0.0,0.0,96,0.00,,,0.02,Wunderground v.1.15,2013-03-08 04:20:00,
2013-03-07 23:26:00,31.7,31.0,30.04,NNE,31,0.0,0.0,96,0.00,,,0.02,weatherlink.com 1.10,2013-03-08 04:26:00,
2013-03-07 23:40:00,31.6,30.3,30.04,NNE,30,0.0,0.0,95,0.00,,,0.02,Wunderground v.1.15,2013-03-08 04:40:00,
2013-03-07 23:50:00,31.6,30.3,30.04,NE,39,0.0,0.0,95,0.00,,,0.02,Wunderground v.1.15,2013-03-08 04:50:00,
2013-03-07 23:56:00,31.6,30.0,30.04,North,360,0.0,0.0,95,0.00,,,0.02,weatherlink.com 1.10,2013-03-08 04:56:00,